Nogales, AZ

10:51 PM MST on February 24, 2017 (GMT -0700)
Nogales International

Weather History for KOLS - March, 2013

Change the Weather History Date:

Saturday, March 30, 2013

  Actual Average (KFHU) Record (KFHU)
Temperature  
Mean Temperature 65 °F -  
Max Temperature 77 °F 68 °F 81 °F (1986)
Min Temperature 53 °F 46 °F 29 °F (1985)
Growing Degree Days 15 (Base 50)    
Moisture  
Dew Point 18 °F    
Average Humidity 18    
Maximum Humidity 31    
Minimum Humidity 10    
Precipitation  
Precipitation 0.00 in - - ()
Sea Level Pressure  
Sea Level Pressure 29.96 in    
Wind  
Wind Speed 4 mph (SSW)    
Max Wind Speed 10 mph    
Max Gust Speed 16 mph    
Visibility 10 miles    
Events      
Averages and records for this station are not official NWS values.
T = Trace of Precipitation, MM = Missing Value Source: NWS Daily Summary

Daily Weather History Graph

Daily Weather History Graph

Search for Another Location

Airport or City:

Trip Planner

Search our weather history database for the weather conditions in past years. The results will help you decide how hot, cold, wet, or windy it might be!

Date:

Astronomy

Mar. 30, 2013 Rise Set
Actual Time 6:14 AM MST 6:41 PM MST
Civil Twilight 5:49 AM MST 7:06 PM MST
Nautical Twilight 5:21 AM MST 7:34 PM MST
Astronomical Twilight 4:52 AM MST 8:03 PM MST
Moon 10:36 PM MST (3/30) 8:26 AM MST (3/30)
Length of Visible Light 13h 16m
Length of Day
12h 27m
Waning Gibbous, 85% of the Moon is Illuminated
Mar 30
Waning Gibbous
Apr 2
Last Quarter
Apr 10
New
Apr 18
First Quarter
Apr 25
Full

Hourly Weather History & Observations

Time (MST) Temp. Dew Point Humidity Pressure Visibility Wind Dir Wind Speed Gust Speed Precip Events Conditions
12:54 AM 60.1 °F 15.1 °F 17% 30.00 in 10.0 mi East 5.8 mph - N/A   Clear
1:54 AM 55.9 °F 18.0 °F 23% 29.99 in 10.0 mi SSE 5.8 mph - N/A   Clear
2:54 AM 57.0 °F 15.1 °F 19% 29.97 in 10.0 mi NNE 5.8 mph - N/A   Clear
3:54 AM 55.0 °F 19.0 °F 24% 29.96 in 10.0 mi Calm Calm - N/A   Clear
4:54 AM 54.0 °F 19.9 °F 26% 29.97 in 10.0 mi Calm Calm - N/A   Clear
5:54 AM 53.1 °F 19.9 °F 27% 29.98 in 10.0 mi Calm Calm - N/A   Clear
6:54 AM 53.1 °F 23.0 °F 31% 30.00 in 10.0 mi Calm Calm - N/A   Clear
7:54 AM 62.1 °F 18.0 °F 18% 30.00 in 10.0 mi Calm Calm - N/A   Clear
8:54 AM 66.0 °F 14.0 °F 13% 30.00 in 10.0 mi Calm Calm - N/A   Partly Cloudy
9:54 AM 68.0 °F 19.0 °F 15% 30.01 in 10.0 mi Calm Calm - N/A   Scattered Clouds
10:54 AM 73.0 °F 18.0 °F 12% 29.99 in 10.0 mi South 5.8 mph - N/A   Scattered Clouds
11:54 AM 75.0 °F 18.0 °F 12% 29.96 in 10.0 mi South 6.9 mph - N/A   Scattered Clouds
12:54 PM 77.0 °F 16.0 °F 10% 29.94 in 10.0 mi SSW 9.2 mph - N/A   Scattered Clouds
1:54 PM 77.0 °F 15.1 °F 10% 29.93 in 10.0 mi WSW 8.1 mph 16.1 mph N/A   Mostly Cloudy
2:54 PM 75.0 °F 14.0 °F 10% 29.93 in 10.0 mi West 9.2 mph - N/A   Overcast
3:54 PM 75.0 °F 19.9 °F 13% 29.90 in 10.0 mi WNW 10.4 mph - N/A   Scattered Clouds
4:54 PM 73.9 °F 17.1 °F 12% 29.90 in 10.0 mi SW 5.8 mph - N/A   Clear
5:54 PM 73.9 °F 14.0 °F 10% 29.90 in 10.0 mi West 6.9 mph - N/A   Clear
6:54 PM 69.1 °F 17.1 °F 14% 29.92 in 10.0 mi West 5.8 mph - N/A   Clear
7:54 PM 62.1 °F 18.0 °F 18% 29.92 in 10.0 mi Calm Calm - N/A   Clear
8:54 PM 59.0 °F 19.0 °F 21% 29.94 in 10.0 mi ENE 4.6 mph - N/A   Clear
9:54 PM 55.0 °F 19.0 °F 24% 29.95 in 10.0 mi East 3.5 mph - N/A   Clear
10:54 PM 53.1 °F 19.9 °F 27% 29.95 in 10.0 mi East 5.8 mph - N/A   Clear
11:54 PM 53.1 °F 19.9 °F 27% 29.95 in 10.0 mi Calm Calm - N/A   Clear